Location: ???????
(55.4362°N, 38.1183°E)
Time: 19:40:52
(UTC+00:00)

OPS 8737 - Pass Details

Date: 26 October 2021
Orbit: 356 x 1703 km, 63.3° (Epoch: 11 October)

Event Time Altitude Azimuth Distance (km) Brightness Sun altitude
Rises 16:29:21 0° 305° (NW) 2,227 9.0 -21.4°
Reaches altitude 10° 16:31:35 10° 321° (NW) 1,347 7.4 -21.7°
Enters shadow 16:32:55 19° 345° (NNW) 949 6.3 -21.9°
